This demonstration page uses our WeatherBlox Daily Observations layout. Learn more.

Left ArrowRight Arrow

44.89941, -97.11507

Hourly Observations for June 28, 2021

Temp ( °F °C ) Dew Point ( °F °C ) Humidity (%) Winds ( mph kmh ) Pressure ( in mb ) Visibility ( mi km ) Precip ( " mm )
12:53 am 00:53 Cloudy 66 18.9 59 15 78 78 NNW 3 6 29.98 1015 10 16 0.00 0.00
1:13 am 01:13 Mostly Cloudy with Nearby Thunderstorms 65 18.3 60 15.6 84 84 ENE 3 6 29.97 1015 10 16 0.00 0.00
1:38 am 01:38 Mostly Cloudy 64 17.8 60 15.6 87 87 Calm 29.97 1015 10 16 0.00 0.00
1:53 am 01:53 Partly Cloudy 63 17.2 60 15.6 90 90 Calm 29.99 1016 10 16 0.00 0.00
2:53 am 02:53 Mostly Clear 63 17.2 59 15 87 87 Calm 29.98 1015 10 16 0.00 0.00
3:53 am 03:53 Mostly Cloudy 63 17.2 59 15 87 87 Calm 29.98 1015 10 16 0.00 0.00
4:53 am 04:53 Clear 63 17.2 59 15 87 87 N 3 6 29.99 1016 10 16 0.00 0.00
5:53 am 05:53 Mostly Cloudy 64 17.8 59 15 84 84 Calm 30.00 1016 10 16 0.00 0.00
6:20 am 06:20 Cloudy with Nearby Thunderstorms 64 17.8 59 15 84 84 Calm 30.00 1016 10 16 0.00 0.00
6:41 am 06:41 Cloudy with Thunderstorms 63 17.2 61 16.1 93 93 S 5 7 30.00 1016 10 16 0.00 0.00
6:53 am 06:53 Mostly Cloudy with Nearby Thunderstorms 64 17.8 61 16.1 90 90 Calm 30.02 1017 10 16 0.00 0.00
7:07 am 07:07 Cloudy 64 17.8 61 16.1 90 90 NE 3 6 30.01 1016 10 16 0.00 0.00
7:53 am 07:53 Mostly Cloudy 67 19.4 61 16.1 81 81 Calm 30.03 1017 10 16 0.00 0.00
8:53 am 08:53 Sunny 69 20.6 61 16.1 76 76 NNE 6 9 30.04 1017 10 16 0.00 0.00
9:53 am 09:53 Sunny 71 21.7 61 16.1 71 71 NE 9 15 30.06 1018 10 16 0.00 0.00
10:53 am 10:53 Mostly Cloudy 74 23.3 61 16.1 64 64 NNE 5 7 30.06 1018 10 16 0.00 0.00
11:49 am 11:49 Mostly Cloudy 73 23 61 16 65 65 NNE 6 9 30.02 1016 10 16 0.00 0.00
11:53 am 11:53 Mostly Cloudy 74 23.3 60 15.6 62 62 VRB 3 6 30.06 1018 10 16 0.00 0.00
12:00 pm 12:00 Partly Cloudy 76 24.4 60 15.6 58 58 NE 6 9 30.00 1016 10 16 0.00 0.00
12:53 pm 12:53 Mostly Cloudy 74 23.3 59 15 60 60 N 7 11 30.06 1018 10 16 0.00 0.00
1:53 pm 13:53 Mostly Cloudy 77 25 59 15 54 54 Calm 30.05 1018 10 16 0.00 0.00
2:53 pm 14:53 Cloudy 80 26.7 59 15 49 49 VRB 6 9 30.04 1017 10 16 0.00 0.00
3:53 pm 15:53 Mostly Sunny 78 25.6 58 14.4 50 50 NW 5 7 30.04 1017 10 16 0.00 0.00
4:53 pm 16:53 Mostly Sunny 81 27.2 59 15 47 47 ENE 8 13 30.04 1017 10 16 0.00 0.00
5:53 pm 17:53 Partly Cloudy 78 25.6 60 15.6 54 54 ENE 6 9 30.03 1017 10 16 0.00 0.00
6:13 pm 18:13 Partly Cloudy with Nearby Thunderstorms 77 25 59 15 54 54 N 3 6 29.97 1015 10 16 0.00 0.00
6:37 pm 18:37 Mostly Cloudy 73 22.8 59 15 62 62 NE 10 17 30.00 1016 10 16 0.00 0.00
6:53 pm 18:53 Cloudy 76 24.4 58 14.4 54 54 NE 9 15 30.05 1018 10 16 0.00 0.00
7:21 pm 19:21 Mostly Cloudy with Thunderstorms 73 22.8 58 14.4 59 59 NE 14 22 30.01 1016 10 16 0.00 0.00
7:36 pm 19:36 Partly Cloudy 72 22.2 59 15 64 64 NE 10 17 30.01 1016 10 16 0.00 0.00
7:53 pm 19:53 Sunny 71 21.7 59 15 66 66 NE 8 13 30.06 1018 10 16 0.00 0.00
8:53 pm 20:53 Sunny 66 18.9 61 16.1 84 84 NE 6 9 30.08 1019 10 16 0.00 0.00
9:53 pm 21:53 Partly Cloudy 65 18.3 59 15 81 81 ENE 6 9 30.10 1019 10 16 0.00 0.00
10:53 pm 22:53 Clear 63 17.2 59 15 87 87 SSE 5 7 30.11 1020 10 16 0.00 0.00
11:53 pm 23:53 Clear 61 16.1 59 15 93 93 Calm 30.11 1020 10 16 0.00 0.00

Powered by AerisWeather